Weather History for Rogers City, MI

Change the Weather History Date:

Tuesday, July 23, 2013

  Actual Average (KAPN) Record (KAPN)
Temperature  
Mean Temperature 66 °F 68 °F  
Max Temperature 74 °F 80 °F 95 °F (2001)
Min Temperature 57 °F 56 °F 41 °F (1923)
Degree Days  
Heating Degree Days 0 1  
Month to date heating degree days 33  
Since 1 June heating degree days 176  
Since 1 July heating degree days 33  
Cooling Degree Days 1 4  
Month to date cooling degree days 89  
Year to date cooling degree days 158  
Since 1 June cooling degree days 145  
Growing Degree Days 16 (Base 50)    
Moisture  
Dew Point 54 °F    
Average Humidity 67    
Maximum Humidity 83    
Minimum Humidity 57    
Precipitation  
Precipitation 0.00 in 0.09 in 1.47 in (2009)
Month to date precipitation 2.28  
Year to date precipitation 14.80  
Sea Level Pressure  
Sea Level Pressure 29.75 in    
Wind  
Wind Speed 12 mph (WNW)    
Max Wind Speed 21 mph    
Max Gust Speed 32 mph    
Visibility 10 miles    
Events Rain    
T = Trace of Precipitation, MM = Missing Value Source: NWS Daily Summary

Daily Weather History Graph

Daily Weather History Graph

Search for Another Location

Airport:

Trip Planner

Search our weather history database for the weather conditions in past years. The results will help you decide how hot, cold, wet, or windy it might be!

Date:

Astronomy

Jul. 23, 2013 Rise Set
Actual Time 6:09 AM EDT 9:13 PM EDT
Civil Twilight 5:34 AM EDT 9:48 PM EDT
Nautical Twilight 4:48 AM EDT 10:33 PM EDT
Astronomical Twilight 3:54 AM EDT 11:27 PM EDT
Moon 9:32 PM EDT (7/23) 7:23 AM EDT (7/23)
Length of Visible Light 16h 13m
Length of Day
15h 03m
Full, 99% of the Moon is Illuminated
Jul 23
Full
Jul 29
Last Quarter
Aug 6
New
Aug 14
First Quarter
Aug 20
Full

Hourly Weather History & Observations

Time (EDT) Temp. Dew Point Humidity Pressure Visibility Wind Dir Wind Speed Gust Speed Precip Events Conditions
12:15 AM 74.3 °F 64.8 °F 72% 29.67 in 10.0 mi SSW 8.1 mph - N/A   Clear
12:34 AM 74.3 °F 64.6 °F 72% 29.66 in 10.0 mi South 8.1 mph - N/A   Clear
12:55 AM 74.3 °F 64.6 °F 72% 29.64 in 10.0 mi South 8.1 mph - N/A   Clear
1:14 AM 74.1 °F 64.4 °F 72% 29.63 in 10.0 mi SSW 9.2 mph - N/A   Clear
1:35 AM 73.9 °F 63.9 °F 71% 29.64 in 10.0 mi SSW 10.4 mph - N/A   Clear
1:55 AM 73.9 °F 63.5 °F 70% 29.64 in 10.0 mi SSW 10.4 mph 17.3 mph N/A   Clear
2:14 AM 73.8 °F 62.8 °F 68% 29.64 in 10.0 mi SSW 9.2 mph - N/A   Clear
2:35 AM 73.8 °F 62.6 °F 68% 29.63 in 10.0 mi SSW 12.7 mph 17.3 mph N/A   Scattered Clouds
2:55 AM 73.8 °F 62.6 °F 68% 29.63 in 10.0 mi SW 17.3 mph - N/A Rain Light Rain
3:14 AM 72.0 °F 64.2 °F 77% 29.61 in 10.0 mi SW 15.0 mph 31.1 mph N/A Rain Rain
3:35 AM 70.9 °F 64.6 °F 80% 29.62 in 10.0 mi WSW 9.2 mph - N/A Rain Light Rain
3:55 AM 70.9 °F 64.6 °F 80% 29.63 in 10.0 mi WSW 6.9 mph 18.4 mph N/A   Scattered Clouds
4:14 AM 70.9 °F 64.6 °F 80% 29.63 in 10.0 mi West 4.6 mph - N/A   Scattered Clouds
4:35 AM 71.1 °F 64.6 °F 80% 29.63 in 10.0 mi West 6.9 mph - N/A   Mostly Cloudy
4:54 AM 70.9 °F 64.8 °F 81% 29.63 in 10.0 mi West 8.1 mph - N/A   Overcast
5:14 AM 70.3 °F 64.6 °F 82% 29.64 in 10.0 mi NW 9.2 mph - N/A   Overcast
5:35 AM 68.9 °F 63.7 °F 83% 29.66 in 10.0 mi NW 12.7 mph 18.4 mph N/A   Overcast
5:54 AM 68.2 °F 58.8 °F 72% 29.65 in 10.0 mi NW 10.4 mph 17.3 mph N/A   Overcast
6:15 AM 67.6 °F 58.5 °F 72% 29.68 in 10.0 mi WNW 8.1 mph - N/A   Overcast
6:35 AM 67.1 °F 58.3 °F 73% 29.68 in 10.0 mi NW 8.1 mph - N/A   Overcast
6:54 AM 66.6 °F 57.2 °F 72% 29.68 in 10.0 mi NW 9.2 mph 18.4 mph N/A   Overcast
7:15 AM 65.7 °F 56.7 °F 73% 29.69 in 10.0 mi NW 9.2 mph 18.4 mph N/A   Overcast
7:35 AM 65.3 °F 56.3 °F 73% 29.69 in 10.0 mi NW 11.5 mph - N/A   Overcast
7:54 AM 65.3 °F 56.5 °F 73% 29.68 in 10.0 mi NNW 11.5 mph 17.3 mph N/A   Overcast
8:15 AM 64.0 °F 55.0 °F 73% 29.68 in 10.0 mi NNW 12.7 mph 20.7 mph N/A   Mostly Cloudy
8:34 AM 63.5 °F 53.2 °F 69% 29.69 in 10.0 mi NNW 13.8 mph 20.7 mph N/A   Scattered Clouds
8:54 AM 63.1 °F 52.0 °F 67% 29.69 in 10.0 mi NW 11.5 mph 18.4 mph N/A   Clear
9:15 AM 63.9 °F 51.4 °F 64% 29.70 in 10.0 mi NW 13.8 mph 20.7 mph N/A   Clear
9:34 AM 62.8 °F 50.4 °F 64% 29.69 in 10.0 mi NW 12.7 mph 20.7 mph N/A   Clear
9:55 AM 63.9 °F 50.9 °F 63% 29.69 in 10.0 mi NW 13.8 mph 18.4 mph N/A   Clear
10:15 AM 64.4 °F 51.1 °F 62% 29.70 in 10.0 mi West 11.5 mph 21.9 mph N/A   Mostly Cloudy
10:34 AM 64.8 °F 51.3 °F 62% 29.71 in 10.0 mi NW 10.4 mph 21.9 mph N/A   Mostly Cloudy
10:55 AM 65.1 °F 51.8 °F 62% 29.72 in 10.0 mi NW 15.0 mph 23.0 mph N/A   Mostly Cloudy
11:15 AM 65.5 °F 51.8 °F 61% 29.72 in 10.0 mi West 12.7 mph 18.4 mph N/A   Overcast
11:34 AM 67.5 °F 52.7 °F 59% 29.72 in 10.0 mi NW 16.1 mph 23.0 mph N/A   Mostly Cloudy
11:55 AM 65.7 °F 51.8 °F 61% 29.74 in 10.0 mi NW 11.5 mph 23.0 mph N/A   Overcast
12:14 PM 65.8 °F 51.6 °F 60% 29.74 in 10.0 mi West 11.5 mph 19.6 mph N/A   Overcast
12:34 PM 65.8 °F 51.4 °F 60% 29.75 in 10.0 mi WNW 18.4 mph 26.5 mph N/A   Overcast
12:55 PM 65.5 °F 50.4 °F 58% 29.76 in 10.0 mi WNW 15.0 mph 26.5 mph N/A   Overcast
1:14 PM 65.1 °F 50.9 °F 60% 29.76 in 10.0 mi WNW 15.0 mph 23.0 mph N/A   Overcast
1:35 PM 64.6 °F 50.7 °F 61% 29.76 in 10.0 mi WNW 17.3 mph 21.9 mph N/A   Overcast
1:55 PM 64.4 °F 50.4 °F 60% 29.76 in 10.0 mi WNW 17.3 mph 24.2 mph N/A   Overcast
2:14 PM 64.2 °F 51.1 °F 62% 29.76 in 10.0 mi West 16.1 mph 23.0 mph N/A   Overcast
2:35 PM 64.0 °F 50.9 °F 62% 29.76 in 10.0 mi WNW 11.5 mph 23.0 mph N/A   Overcast
2:55 PM 64.4 °F 51.3 °F 62% 29.77 in 10.0 mi NW 19.6 mph 26.5 mph N/A   Overcast
3:14 PM 61.7 °F 52.0 °F 70% 29.78 in 10.0 mi NW 15.0 mph 26.5 mph N/A   Overcast
3:35 PM 62.8 °F 52.7 °F 70% 29.79 in 10.0 mi WNW 16.1 mph 21.9 mph N/A   Overcast
3:54 PM 60.6 °F 51.6 °F 72% 29.79 in 10.0 mi NW 20.7 mph 29.9 mph N/A   Overcast
4:15 PM 60.8 °F 50.0 °F 68% 29.80 in 10.0 mi NW 12.7 mph 26.5 mph N/A   Overcast
4:35 PM 63.9 °F 49.5 °F 59% 29.80 in 10.0 mi NNW 17.3 mph 28.8 mph N/A   Mostly Cloudy
4:54 PM 63.0 °F 48.2 °F 59% 29.81 in 10.0 mi WNW 16.1 mph 32.2 mph N/A   Scattered Clouds
5:15 PM 63.0 °F 47.5 °F 57% 29.81 in 10.0 mi NW 15.0 mph 31.1 mph N/A   Mostly Cloudy
5:35 PM 62.8 °F 48.0 °F 59% 29.82 in 10.0 mi NW 19.6 mph 28.8 mph N/A   Mostly Cloudy
5:54 PM 62.2 °F 48.4 °F 60% 29.82 in 10.0 mi NW 19.6 mph 26.5 mph N/A   Mostly Cloudy
6:15 PM 61.9 °F 48.6 °F 62% 29.82 in 10.0 mi NW 16.1 mph 27.6 mph N/A   Mostly Cloudy
6:35 PM 62.8 °F 48.6 °F 60% 29.83 in 10.0 mi NW 18.4 mph 32.2 mph N/A   Overcast
6:54 PM 61.3 °F 48.4 °F 62% 29.84 in 10.0 mi NW 13.8 mph 28.8 mph N/A   Overcast
7:15 PM 60.8 °F 48.6 °F 64% 29.85 in 10.0 mi NW 19.6 mph 29.9 mph N/A   Overcast
7:34 PM 61.5 °F 48.9 °F 63% 29.86 in 10.0 mi NNW 16.1 mph 26.5 mph N/A   Overcast
7:55 PM 59.9 °F 48.0 °F 65% 29.87 in 10.0 mi NNW 18.4 mph 27.6 mph N/A   Overcast
8:14 PM 59.9 °F 48.4 °F 66% 29.88 in 10.0 mi NW 18.4 mph 26.5 mph N/A   Overcast
8:34 PM 60.3 °F 46.9 °F 61% 29.89 in 10.0 mi NW 16.1 mph 26.5 mph N/A   Overcast
8:55 PM 59.9 °F 46.8 °F 62% 29.89 in 10.0 mi NW 13.8 mph 24.2 mph N/A   Overcast
9:14 PM 59.4 °F 46.9 °F 63% 29.90 in 10.0 mi NNW 12.7 mph 23.0 mph N/A   Overcast
9:35 PM 58.6 °F 45.9 °F 63% 29.90 in 10.0 mi NW 13.8 mph 19.6 mph N/A   Scattered Clouds
9:55 PM 58.5 °F 45.5 °F 62% 29.91 in 10.0 mi NNW 11.5 mph 20.7 mph N/A   Clear
10:14 PM 58.6 °F 45.5 °F 62% 29.91 in 10.0 mi NNW 13.8 mph 20.7 mph N/A   Clear
10:35 PM 58.5 °F 46.4 °F 64% 29.92 in 10.0 mi NNW 12.7 mph 19.6 mph N/A   Clear
10:55 PM 58.1 °F 46.4 °F 65% 29.92 in 10.0 mi NNW 12.7 mph 17.3 mph N/A   Clear
11:14 PM 58.1 °F 46.9 °F 66% 29.92 in 10.0 mi NNW 15.0 mph 20.7 mph N/A   Clear
11:35 PM 58.1 °F 47.7 °F 68% 29.93 in 10.0 mi NNW 10.4 mph 19.6 mph N/A   Scattered Clouds
11:54 PM 57.7 °F 48.0 °F 70% 29.93 in 10.0 mi NNW 12.7 mph 19.6 mph N/A   Mostly Cloudy